Hourly Data Report for January 11, 2022

OTTAWA INTL A
ONTARIO
Current Station Operator: NAVCAN

45°19'00.000" N
75°40'00.000" W
114.90 m
6106001
71628
YOW

Download Data

Hourly Data (January 2022)
Hourly Data Report for January 11, 2022
TIME
LST
Temp Definition
°C
Dew Point Definition
°C
Rel Hum Definition
%
Precip. Amount Definition
mm

Wind Dir Definition
10's deg

Wind Spd Definition
km/h
Visibility Definition
km
Stn Press Definition
kPa
Hmdx Definition


Wind Chill Definition


Weather Definition


00:00 -21.3 -27.5 58   33 29 24.1 101.36   -34 LegendNANA
01:00 -22.4 -29.1 55   33 25 24.1 101.50   -35 Mainly Clear
02:00 -23.3 -29.5 57   33 28 24.1 101.64   -36 LegendNANA
03:00 -24.0 -30.1 58   33 24 24.1 101.75   -37 LegendNANA
04:00 -24.7 -30.0 62   31 23 24.1 101.83   -37 Clear
05:00 -25.3 -30.8 61   31 23 24.1 101.95   -38 LegendNANA
06:00 -25.6 -31.1 61   32 16 24.1 101.98   -36 LegendNANA
07:00 -26.4 -31.3 64   31 13 24.1 102.09   -36 Clear
08:00 -26.5 -31.7 62   31 11 24.1 102.12   -35 LegendNANA
09:00 -25.7 -30.4 66   28 5 24.1 102.20   -31 LegendNANA
10:00 -25.0 -30.4 62   26 10 24.1 102.21   -33 Clear
11:00 -24.2 -31.6 51   26 8 24.1 102.23   -31 LegendNANA
12:00 -23.0 -30.2 53   29 13 24.1 102.11   -32 LegendNANA
13:00 -22.2 -29.9 51   20 13 24.1 102.02   -31 Clear
14:00 -21.2 -29.9 47   22 9 24.1 101.91   -28 LegendNANA
15:00 -20.6 -29.1 47   19 8 24.1 101.90   -27 LegendNANA
16:00 -20.3 -28.8 47   18 7 24.1 101.83   -26 Mainly Clear
17:00 -20.3 -27.8 52   17 7 24.1 101.75   -26 LegendNANA
18:00 -21.6 -27.2 61   13 9 24.1 101.64   -29 LegendNANA
19:00 -19.7 -26.4 56   14 11 24.1 101.50   -27 Cloudy
20:00 -19.0 -25.1 59   13 13 24.1 101.29   -27 LegendNANA
21:00 -18.4 -23.5 65   12 14 24.1 101.11   -27 LegendNANA
22:00 -17.7 -22.0 69   11 16 24.1 100.92   -27 Mostly Cloudy
23:00 -15.9 -19.8 72   12 13 24.1 100.76   -23 LegendNANA

Notes on Data Quality.

Legend

  • E = Estimated
  • M = Missing
  • NA = Not Available*
  • [empty] = Indicates an unobserved value
Date modified: